Location: Gage
(33.9753°N, 118.1267°W)
Time: 09:55:02
(UTC+00:00)

IRS-1D - Pass Details

Date: 03 August 2024
Orbit: 738 x 812 km, 98.8° (Epoch: 10 September)

Event Time Altitude Azimuth Distance (km) Brightness Sun altitude
Rises 12:29:03 0° 360° (N) 3,195 7.1 -7.8°
Reaches altitude 10° 12:31:33 10° 349° (N) 2,276 6.2 -7.3°
Maximum altitude 12:35:50 29° 290° (WNW) 1,354 4.5 -6.5°
Drops below altitude 10° 12:40:11 10° 231° (SW) 2,302 5.3 -5.7°
Enters shadow 12:41:32 - 225° (SW) 2,786 5.8 -5.5°
